Regional Weather Roundup
Issued by NWS

Home | Current Version | Previous Version | Graphics & Text | Print | Product List | Glossary On
Versions: 1 2 3 4 5 6 7 8 9 10 11 12 13 14 15 16 17 18 19 20 21 22 23 24 25 26 27 28 29 30 31 32 33 34 35 36 37 38 39 40 41 42 43 44 45 46 47 48 49 50
000
ASUS43 KBIS 042310
RWRND

NORTH DAKOTA REGIONAL WEATHER ROUNDUP
NATIONAL WEATHER SERVICE BISMARCK ND
600 PM CDT WED MAY 04 2016

NOTE: "FAIR" INDICATES FEW OR NO CLOUDS BELOW 12,000 FEET WITH NO
SIGNIFICANT WEATHER AND/OR OBSTRUCTIONS TO VISIBILITY.


NDZ001>003-009>011-017-050000-
NORTHWEST NORTH DAKOTA

CITY           SKY/WX    TMP DP  RH WIND       PRES   REMARKS
WILLISTON      SUNNY     84  36  18 SW14      29.89F
MINOT          SUNNY     88  36  15 SW12      29.89F
MINOT AFB      MOSUNNY   85  39  19 W10       29.88S
$$

NDZ018>021-031>035-040>046-050000-
SOUTHWEST NORTH DAKOTA

CITY           SKY/WX    TMP DP  RH WIND       PRES   REMARKS
BISMARCK       SUNNY     80  43  26 MISG      29.97F
DICKINSON      SUNNY     79  35  20 SW13      29.95F
GARRISON         N/A     82  40  22 S8        29.93F
HETTINGER ARPT SUNNY     77  41  27 S12       30.01F
$$

NDZ004>008-012>016-024-026-027-054-050000-
NORTHEAST NORTH DAKOTA

CITY           SKY/WX    TMP DP  RH WIND       PRES   REMARKS
GRAND FORKS    MOSUNNY   71  30  21 S3        29.96F
GRND FRKS AFB  SUNNY     70  27  19 VRB3      29.97F
DEVILS LAKE    MOSUNNY   72  38  29 SE8       29.96F
$$

NDZ022-023-025-028>030-036>039-047>053-050000-
SOUTHEAST NORTH DAKOTA

CITY           SKY/WX    TMP DP  RH WIND       PRES   REMARKS
FARGO          SUNNY     70  26  19 N7        29.98S
JAMESTOWN      SUNNY     73  36  25 NW5       29.98F
$$





USA.gov is the U.S. government's official web portal to all federal, state and local government web resources and services.